Location: Buckeye Ditch
(40.9104°N, 122.9517°W)
Time: 14:41:16
(UTC+00:00)

Transit 2A - Pass Details

Date: 25 May 2025
Orbit: 599 x 947 km, 66.7° (Epoch: 15 June)

Event Time Altitude Azimuth Distance (km) Brightness Sun altitude
Rises 13:55:25 0° 216° (SW) 3,034 8.6 11.2°
Reaches altitude 10° 13:57:49 10° 220° (SW) 2,075 7.8 11.6°
Maximum altitude 14:02:25 63° 302° (WNW) 706 5.9 12.5°
Drops below altitude 10° 14:06:46 10° 23° (NNE) 1,965 8.8 13.2°
Sets 14:09:00 0° 27° (NNE) 2,859 9.7 13.6°
